TimeCST,TemperatureF,Dew PointF,Humidity,Sea Level PressureIn,VisibilityMPH,Wind Direction,Wind SpeedMPH,Gust SpeedMPH,PrecipitationIn,Events,Conditions,WindDirDegrees,DateUTC
12:15 AM,39.2,21.2,49,30.23,10.0,Calm,Calm,-,N/A,,Clear,0,2013-03-07 06:15:00
12:35 AM,37.4,23.0,56,30.22,10.0,Calm,Calm,-,N/A,,Clear,0,2013-03-07 06:35:00
12:55 AM,37.4,21.2,52,30.21,10.0,Calm,Calm,-,N/A,,Clear,0,2013-03-07 06:55:00
1:15 AM,37.4,23.0,56,30.21,10.0,Calm,Calm,-,N/A,,Clear,0,2013-03-07 07:15:00
1:35 AM,37.4,23.0,56,30.21,10.0,Calm,Calm,-,N/A,,Clear,0,2013-03-07 07:35:00
1:55 AM,35.6,23.0,60,30.21,10.0,Calm,Calm,-,N/A,,Clear,0,2013-03-07 07:55:00
2:15 AM,35.6,24.8,65,30.21,10.0,Calm,Calm,-,N/A,,Clear,0,2013-03-07 08:15:00
2:35 AM,35.6,21.2,56,30.20,10.0,Calm,Calm,-,N/A,,Clear,0,2013-03-07 08:35:00
2:55 AM,35.6,23.0,60,30.19,10.0,Calm,Calm,-,N/A,,Clear,0,2013-03-07 08:55:00
3:15 AM,33.8,23.0,65,30.18,10.0,Calm,Calm,-,N/A,,Clear,0,2013-03-07 09:15:00
3:35 AM,33.8,23.0,65,30.17,10.0,Calm,Calm,-,N/A,,Clear,0,2013-03-07 09:35:00
3:55 AM,33.8,23.0,65,30.16,10.0,Calm,Calm,-,N/A,,Clear,0,2013-03-07 09:55:00
4:15 AM,33.8,21.2,60,30.17,10.0,Calm,Calm,-,N/A,,Clear,0,2013-03-07 10:15:00
4:35 AM,33.8,23.0,65,30.17,10.0,Calm,Calm,-,N/A,,Clear,0,2013-03-07 10:35:00
4:55 AM,33.8,23.0,65,30.17,10.0,Calm,Calm,-,N/A,,Clear,0,2013-03-07 10:55:00
5:15 AM,33.8,23.0,65,30.18,10.0,Calm,Calm,-,N/A,,Clear,0,2013-03-07 11:15:00
5:35 AM,33.8,24.8,70,30.19,10.0,Calm,Calm,-,N/A,,Clear,0,2013-03-07 11:35:00
5:55 AM,37.4,23.0,56,30.19,10.0,Calm,Calm,-,N/A,,Clear,0,2013-03-07 11:55:00
6:15 AM,37.4,26.6,65,30.20,10.0,Calm,Calm,-,N/A,,Clear,0,2013-03-07 12:15:00
6:35 AM,39.2,26.6,61,30.20,10.0,Calm,Calm,-,N/A,,Clear,0,2013-03-07 12:35:00
6:55 AM,37.4,26.6,65,30.21,10.0,Calm,Calm,-,N/A,,Clear,0,2013-03-07 12:55:00
7:15 AM,39.2,26.6,61,30.23,10.0,Calm,Calm,-,N/A,,Clear,0,2013-03-07 13:15:00
7:35 AM,42.8,26.6,53,30.23,10.0,Calm,Calm,-,N/A,,Clear,0,2013-03-07 13:35:00
7:55 AM,42.8,28.4,57,30.25,10.0,Calm,Calm,-,N/A,,Clear,0,2013-03-07 13:55:00
8:15 AM,44.6,30.2,57,30.25,10.0,ESE,4.6,-,N/A,,Clear,110,2013-03-07 14:15:00
8:35 AM,46.4,30.2,53,30.26,10.0,Calm,Calm,-,N/A,,Clear,0,2013-03-07 14:35:00
8:55 AM,48.2,32.0,54,30.26,10.0,Calm,Calm,-,N/A,,Clear,0,2013-03-07 14:55:00
9:15 AM,51.8,33.8,50,30.25,10.0,ESE,6.9,-,N/A,,Clear,110,2013-03-07 15:15:00
9:35 AM,53.6,37.4,54,30.25,10.0,SE,5.8,-,N/A,,Clear,130,2013-03-07 15:35:00
9:55 AM,57.2,44.6,63,30.25,10.0,SSE,8.1,-,N/A,,Partly Cloudy,160,2013-03-07 15:55:00
10:15 AM,59.0,42.8,55,30.25,10.0,South,11.5,16.1,N/A,,Clear,190,2013-03-07 16:15:00
10:35 AM,60.8,42.8,52,30.24,10.0,South,10.4,-,N/A,,Clear,190,2013-03-07 16:35:00
10:55 AM,62.6,42.8,48,30.23,10.0,SSE,10.4,-,N/A,,Clear,160,2013-03-07 16:55:00
11:15 AM,64.4,42.8,45,30.22,10.0,SSE,9.2,16.1,N/A,,Clear,160,2013-03-07 17:15:00
11:35 AM,66.2,42.8,43,30.22,10.0,South,11.5,16.1,N/A,,Clear,190,2013-03-07 17:35:00
11:55 AM,66.2,42.8,43,30.21,10.0,South,8.1,19.6,N/A,,Clear,190,2013-03-07 17:55:00
12:15 PM,68.0,42.8,40,30.19,10.0,South,13.8,17.3,N/A,,Clear,170,2013-03-07 18:15:00
12:35 PM,69.8,44.6,40,30.18,10.0,SSE,10.4,17.3,N/A,,Clear,160,2013-03-07 18:35:00
12:55 PM,71.6,44.6,38,30.17,10.0,South,15.0,19.6,N/A,,Clear,170,2013-03-07 18:55:00
1:15 PM,71.6,42.8,35,30.16,10.0,SE,10.4,20.7,N/A,,Clear,140,2013-03-07 19:15:00
1:35 PM,71.6,42.8,35,30.16,10.0,South,16.1,19.6,N/A,,Clear,190,2013-03-07 19:35:00
1:55 PM,71.6,44.6,38,30.14,10.0,SSE,13.8,20.7,N/A,,Partly Cloudy,160,2013-03-07 19:55:00
2:15 PM,71.6,44.6,38,30.13,10.0,South,15.0,19.6,N/A,,Clear,170,2013-03-07 20:15:00
2:35 PM,71.6,42.8,35,30.13,10.0,SSE,13.8,21.9,N/A,,Clear,160,2013-03-07 20:35:00
2:55 PM,71.6,42.8,35,30.12,10.0,SSE,13.8,19.6,N/A,,Clear,160,2013-03-07 20:55:00
3:15 PM,71.6,42.8,35,30.12,10.0,South,13.8,18.4,N/A,,Clear,180,2013-03-07 21:15:00
3:55 PM,71.6,44.6,38,30.11,10.0,South,5.8,16.1,N/A,,Clear,180,2013-03-07 21:55:00
4:15 PM,71.6,44.6,38,30.11,10.0,SSE,13.8,17.3,N/A,,Clear,150,2013-03-07 22:15:00
4:35 PM,71.6,44.6,38,30.11,10.0,SSE,9.2,20.7,N/A,,Clear,160,2013-03-07 22:35:00
4:55 PM,71.6,46.4,41,30.11,10.0,SSE,11.5,20.7,N/A,,Clear,160,2013-03-07 22:55:00
5:15 PM,71.6,46.4,41,30.11,10.0,SSE,15.0,-,N/A,,Clear,160,2013-03-07 23:15:00
5:35 PM,69.8,46.4,43,30.10,10.0,SE,8.1,-,N/A,,Clear,140,2013-03-07 23:35:00
7:35 PM,64.4,46.4,52,30.13,10.0,Calm,Calm,-,N/A,,Mostly Cloudy,0,2013-03-08 01:35:00
8:15 PM,66.2,48.2,52,30.12,10.0,SSE,9.2,-,N/A,,Mostly Cloudy,160,2013-03-08 02:15:00
8:35 PM,64.4,51.8,64,30.13,10.0,South,9.2,16.1,N/A,,Scattered Clouds,170,2013-03-08 02:35:00
8:55 PM,64.4,51.8,64,30.14,10.0,SSE,11.5,18.4,N/A,,Scattered Clouds,160,2013-03-08 02:55:00
9:15 PM,64.4,51.8,64,30.13,10.0,SSE,12.7,17.3,N/A,,Mostly Cloudy,160,2013-03-08 03:15:00
9:35 PM,64.4,53.6,68,30.14,10.0,SSE,11.5,19.6,N/A,,Mostly Cloudy,160,2013-03-08 03:35:00
9:55 PM,62.6,53.6,72,30.13,10.0,SSE,10.4,-,N/A,,Overcast,150,2013-03-08 03:55:00
10:15 PM,62.6,53.6,72,30.14,10.0,SSE,11.5,18.4,N/A,,Overcast,150,2013-03-08 04:15:00
10:35 PM,62.6,53.6,72,30.14,10.0,SSE,13.8,20.7,N/A,,Overcast,160,2013-03-08 04:35:00
10:55 PM,62.6,53.6,72,30.14,10.0,SSE,10.4,18.4,N/A,,Overcast,160,2013-03-08 04:55:00
11:15 PM,62.6,53.6,72,30.13,10.0,South,10.4,19.6,N/A,,Overcast,170,2013-03-08 05:15:00
11:55 PM,62.6,53.6,72,30.13,10.0,SSE,12.7,-,N/A,,Overcast,160,2013-03-08 05:55:00